Doylestown, PA

4:55 AM EST on November 24, 2017 (GMT -0500)
Doylestown

Weather History for KDYL - July, 2013

Change the Weather History Date:

Friday, July 19, 2013

  Actual Average (KTTN) Record (KTTN)
Temperature  
Mean Temperature 85 °F -  
Max Temperature 95 °F 82 °F 99 °F (1991)
Min Temperature 77 °F 63 °F 55 °F (1924)
Cooling Degree Days 20    
Growing Degree Days 35 (Base 50)    
Moisture  
Dew Point 75 °F    
Average Humidity 72    
Maximum Humidity 96    
Minimum Humidity 51    
Precipitation  
Precipitation 0.00 in - - ()
Sea Level Pressure  
Sea Level Pressure 29.91 in    
Wind  
Wind Speed 5 mph (SW)    
Max Wind Speed 10 mph    
Max Gust Speed 16 mph    
Visibility 9 miles    
Events      
Averages and records for this station are not official NWS values.
T = Trace of Precipitation, MM = Missing Value Source: NWS Daily Summary

Daily Weather History Graph

Daily Weather History Graph

Search for Another Location

Airport or City:

Trip Planner

Search our weather history database for the weather conditions in past years. The results will help you decide how hot, cold, wet, or windy it might be!

Date:

Astronomy

Jul. 19, 2013 Rise Set
Actual Time 5:46 AM EDT 8:26 PM EDT
Civil Twilight 5:14 AM EDT 8:58 PM EDT
Nautical Twilight 4:35 AM EDT 9:37 PM EDT
Astronomical Twilight 3:50 AM EDT 10:22 PM EDT
Moon 5:26 PM EDT (7/19) 2:25 AM EDT (7/19)
Length of Visible Light 15h 43m
Length of Day
14h 39m
Waxing Gibbous, 86% of the Moon is Illuminated
Jul 19
Waxing Gibbous
Jul 22
Full
Jul 29
Last Quarter
Aug 6
New
Aug 14
First Quarter

Hourly Weather History & Observations

Time (EDT) Temp. Heat Index Dew Point Humidity Pressure Visibility Wind Dir Wind Speed Gust Speed Precip Events Conditions
12:54 AM 81.0 °F 87.3 °F 75.9 °F 85% 29.98 in 10.0 mi SSW 4.6 mph - N/A   Clear
1:54 AM 80.1 °F 85.4 °F 75.9 °F 87% 29.98 in 10.0 mi Calm Calm - N/A   Clear
2:54 AM 79.0 °F - 75.0 °F 88% 29.97 in 9.0 mi Calm Calm - N/A   Clear
3:54 AM 78.1 °F - 75.0 °F 90% 29.97 in 9.0 mi South 3.5 mph - N/A   Clear
4:54 AM 77.0 °F - 75.0 °F 94% 29.96 in 8.0 mi Calm Calm - N/A   Clear
5:54 AM 77.0 °F - 75.9 °F 96% 29.96 in 6.0 mi Calm Calm - N/A   Clear
6:54 AM 79.0 °F - 75.9 °F 90% 29.95 in 6.0 mi SSW 4.6 mph - N/A   Clear
7:54 AM 82.0 °F 90.2 °F 77.0 °F 85% 29.96 in 8.0 mi SW 4.6 mph - N/A   Clear
8:54 AM 84.9 °F 94.1 °F 75.9 °F 74% 29.96 in 10.0 mi SW 5.8 mph - N/A   Clear
9:54 AM 87.1 °F 98.8 °F 77.0 °F 72% 29.96 in 10.0 mi SW 5.8 mph - N/A   Clear
10:54 AM 89.1 °F 101.4 °F 77.0 °F 67% 29.95 in 10.0 mi Variable 6.9 mph - N/A   Clear
11:54 AM 91.0 °F 101.6 °F 75.0 °F 59% 29.94 in 10.0 mi SW 8.1 mph - N/A   Clear
12:54 PM 91.9 °F 103.9 °F 75.9 °F 59% 29.92 in 10.0 mi WSW 6.9 mph - N/A   Scattered Clouds
1:54 PM 93.0 °F 103.2 °F 73.9 °F 54% 29.90 in 10.0 mi SW 9.2 mph 16.1 mph N/A   Clear
2:54 PM 93.9 °F 103.4 °F 73.0 °F 51% 29.88 in 10.0 mi SW 8.1 mph - N/A   Partly Cloudy
3:54 PM 93.9 °F 103.4 °F 73.0 °F 51% 29.85 in 10.0 mi SSW 9.2 mph - N/A   Partly Cloudy
4:54 PM 93.0 °F 103.2 °F 73.9 °F 54% 29.83 in 10.0 mi SSW 8.1 mph - N/A   Partly Cloudy
5:54 PM 91.9 °F 101.3 °F 73.9 °F 55% 29.82 in 10.0 mi SW 10.4 mph 16.1 mph N/A   Clear
6:54 PM 89.1 °F 99.1 °F 75.0 °F 63% 29.82 in 10.0 mi SSW 9.2 mph - N/A   Clear
7:54 PM 87.1 °F 97.3 °F 75.9 °F 69% 29.83 in 10.0 mi SSW 5.8 mph - N/A   Clear
8:54 PM 87.1 °F 96.3 °F 75.0 °F 67% 29.85 in 10.0 mi WSW 10.4 mph 16.1 mph N/A   Partly Cloudy
9:54 PM 86.0 °F 95.1 °F 75.0 °F 70% 29.84 in 10.0 mi SSW 5.8 mph - N/A   Clear
10:54 PM 82.9 °F 90.2 °F 75.0 °F 77% 29.81 in 10.0 mi SSW 3.5 mph - N/A   Clear
11:54 PM 81.0 °F 85.2 °F 72.0 °F 74% 29.83 in 10.0 mi West 5.8 mph - N/A   Clear